{"data":{"norad_id":56487,"intl_designator":"2023-064AR","name":"STARLINK-6196","alt_names":[],"object_type":"PAYLOAD","status":"ACTIVE","operator":null,"country":"US","launch_date":"2023-05-10","launch_site_code":"AFWTR","launch_vehicle":null,"mission":null,"orbit_class":"UNKNOWN","rcs_meters":null,"size_class":null,"mass_kg":null,"dimensions":null,"purposes":["comms"],"wikipedia_slug":null,"has_3d_model":false,"image_url":null,"decayed_at":null,"tle_current":{"epoch":"2026-09-20T13:04:01.367328Z","epoch_age_seconds":108169,"freshness":"FRESH","line1":"1 56487U 23064AR  26263.54446027  .00000413  00000+0  42413-4 0  9991","line2":"2 56487  69.9993 333.0121 0003382 268.9809  91.0963 14.98330837185422","mean_motion":14.98330837,"eccentricity":0.0003382,"inclination_deg":69.9993,"raan_deg":333.0121,"arg_perigee_deg":268.9809,"mean_anomaly_deg":91.0963,"bstar":4.2413e-5,"rev_number":18542,"period_min":96.106945438246,"perigee_km":569.70274823183,"apogee_km":574.4038569525,"semimajor_km":6950.1903025922,"source":"CELESTRAK","updated_at":"2026-09-21T09:00:33.448875Z"}}}